www.pogodaiklimat.ru
Время
и дата
06:53 18.10
07:53 18.10
08:15 18.10
08:37 18.10
08:44 18.10
08:53 18.10
09:32 18.10
09:53 18.10
10:53 18.10
11:53 18.10
12:53 18.10
13:53 18.10
14:53 18.10
15:53 18.10
16:39 18.10
16:53 18.10
17:53 18.10
18:53 18.10
19:53 18.10
20:53 18.10
21:13 18.10
21:48 18.10
21:53 18.10
22:53 18.10
23:53 18.10
00:53 19.10
03:53 19.10
04:53 19.10
05:53 19.10
06:53 19.10
07:53 19.10
08:53 19.10
09:53 19.10
10:53 19.10
11:53 19.10
12:53 19.10
13:53 19.10
14:53 19.10
15:53 19.10
16:53 19.10
17:53 19.10
18:53 19.10
19:53 19.10
20:53 19.10
21:53 19.10
22:53 19.10
23:53 19.10
00:53 20.10
Ветер
(напр.,м/с)
Видим. Явления Облачность Т
(С)
Тd
(С)
f
(%)
Тe
(С)
Тes
(С)
Комфортность P
(гПа)
Po
(гПа)
Тmin
(С)
Tmax
(С)
R
(мм)
R24
(мм)
S
(см)
В 1 16 км 10/10 1350 м -2.2 -4.4 85 -6 -6 1026.3 886.1
В 1 16 км 10/10 1350 м -1.7 -4.4 82 -6 -6 1026.3 886.4
ЮВ 1 16 км 10/10 270 м -1.7 -4.4 82 -6 -6 886.4
ЮВ 1 16 км 10/10 270 м -1.1 -3.9 81 -6 -6 886.1
ЮВ 1 16 км 10/10 300 м -1.1 -3.9 81 -6 -6 886.1
ЮВ 1 16 км 10/10 360 м -1.1 -3.9 81 -6 -6 1026.3 886.4
ЮВ 2 16 км 10/10 450 м 0.0 -3.3 78 -5 -5 885.8
ЮВ 2 16 км 10/10 510 м 0.0 -3.3 78 -5 -5 1025.8 886.1
Ю 2 16 км 10/10 540 м +1.1 -2.8 75 -5 -5 1024.8 885.2 -2.2 +1.1
Ю 3 16 км 10/10 510 м +1.1 -2.8 75 -5 -5 1023.7 884.3
Ю 3 16 км 10/10 540 м +1.7 -2.8 72 -5 -5 1022.5 883.4
Ю 3 16 км 10/10 540 м +1.7 -2.8 72 -5 -5 1021.7 882.5
ЮВ 3
{5}
16 км 10/10 630 м +2.2 -3.3 67 -3 -3 1020.5 881.7
Ю 4
{5}
16 км 10/10 690 м +2.2 -2.8 69 -4 -4 1020.3 881.4
Ю 4 16 км 10/10 390 м +1.1 -2.2 79 -6 -6 881.4
Ю 4
{5}
16 км 10/10 330 м +1.1 -2.2 79 -6 -6 1020.4 881.4 +1.1 +2.2
ЮВ 3 16 км 10/10 330 м +1.1 -2.2 79 -6 -6 1020.8 881.7
ЮВ 3
{5}
16 км 10/10 330 м +1.1 -2.2 79 -6 -6 1020.5 881.4
Ю 4
{5}
16 км 10/10 330 м +1.1 -2.2 79 -6 -6 1020.9 882.0
Ю 3 16 км 8/5 330 м
[средняя]
+0.6 -2.2 81 -6 -6 1020.2 881.4
ЮВ 3 16 км 8/8 330 м
[средняя]
0.0 -2.2 85 -7 -7 881.1
Ю 2 16 км 2/2 360 м 0.0 -2.0 86 -6 -6 881.1
Ю 3 16 км 2/2 360 м 0.0 -2.2 85 -7 -7 1020.0 881.1
Ю 3 16 км 2/0 2400 м
[средняя]
-0.6 -2.8 85 -7 -7 1018.6 880.2 -0.6 +1.1
Ю 3 16 км 5/0 2550 м
[средняя]
0.0 -2.2 85 -7 -7 1018.0 879.6
Ю 2 16 км 8/0 2550 м
[средняя]
0.0 -2.2 85 -5 -5 1017.8 879.6
ЮВ 2 16 км 10/0 2250 м
[средняя]
0.0 -3.3 78 -5 -5 1017.7 879.6
ЮВ 2 16 км 8/2 1800 м
[средняя]
0.0 -3.3 78 -5 -5 1018.3 879.9 -0.6 +0.6
Ю 2 16 км 8/8 1410 м
[средняя]
0.0 -2.8 81 -6 -6 1018.0 879.6
Ю 2 16 км 8/0 3300 м
[средняя]
0.0 -2.8 81 -6 -6 1018.1 879.6
Ю 2 16 км 5/2 1020 м
[средняя]
+1.1 -2.2 79 -5 -4 1018.2 879.9
Ю 2 16 км 2/0 2700 м
[средняя]
+2.2 -1.7 75 -3 +1 1018.8 880.5
Ю 2 16 км ясно +5.0 -1.1 65 +1 +7 1018.2 880.5
Ю 1 16 км ясно +6.7 -0.6 60 +4 +18 опасность
простуды
1017.9 880.5 -0.6 +7.2
Ю 2 16 км ясно +10.0 0.0 50 +8 +22 опасность
простуды
1016.3 879.6
Ю 1 16 км ясно +11.7 +0.6 46 +11 +32 опасность
простуды
1015.1 878.7
нст 1 16 км ясно +13.3 +1.1 43 +13 +32 опасность
простуды
1014.3 878.4
ЮВ 2 16 км ясно +13.3 +1.1 43 +12 +22 1014.5 878.4
В 2 16 км ясно +12.8 +1.1 45 +11 +16 1014.9 878.7
В 2 16 км 5/0 3000 м
[средняя]
+10.0 +1.1 54 +7 +9 1015.2 878.7 +6.7 +13.3
В 2 16 км 10/0 3600 м
[средняя]
+8.9 +2.8 66 +6 +6 1015.7 878.7
В 2 16 км 8/0 3000 м
[средняя]
+7.8 +2.8 71 +4 +4 1015.8 878.7
В 3 16 км 8/0 3300 м
[средняя]
+6.7 +2.8 76 +2 +2 1015.2 878.1
ЮВ 3 16 км 10/0 3300 м
[средняя]
+6.7 +1.7 70 +2 +2 1014.5 877.9
Ю 4
{6}
16 км 10/0 3000 м
[средняя]
+6.1 +0.6 68 +1 +1 1013.8 877.6
ЮВ 2
{4}
16 км ясно +5.0 -1.1 65 +1 +1 1013.5 877.6 +5.0 +10.0
ЮВ 3 16 км ясно +3.9 -1.7 67 -2 -2 1011.2 875.8
Ю 3
{5}
16 км ясно +3.3 -0.6 76 -3 -3 1010.4 875.2
Местоположение метеостанции Alliance Minicipal Airport: широта 42.0600 долгота -102.8000 высота над уровнем моря 1197 м.
В архиве по умолчанию представлена погода в Аллайансе за последние 1-2 суток. Обновление информации о фактической погоде в базе происходит ежечасно! Архивные данные за месяц целиком и за предыдущие месяцы Вы можете получить, выбрав интересующий диапазон дат из раскрывающегося списка и нажав кнопку "Ввод!".
Внимание! Архив погоды МЕТАР в базе сайта по станциям, не включенным в климатический монитор, хранится не более 60 дней. Нет смысла пытаться выбрать более раннюю дату.
*Определитесь, кто Вы:
Внимание! Время в таблицах - местное (без учета летнего времени). Для получения всемирного времени необходимо вычесть поправку, которая равна -7 ч.
Смотрите также архив погоды в соседних городах и на ближайших метеорологических станциях:
Партнеры нашего сайта:      
Пояснения к столбцам:
  • Ветер - указаны скорость ветра в м/с - средняя за 10 мин, порывы в срок и между сроками (в фигурных скобках) и направление, откуда дует ветер: С - северный,
  • СВ - северо-восточный, В - восточный, ЮВ - юго-восточный, Ю - южный, ЮЗ - юго-западный, З - западный, СЗ - северо-западный.
  • Видимость - горизонтальная дальность видимости в метрах или километрах. При видимости от 1 до 10 км при отсутствии осадков обычно наблюдается дымка, при ухудшении видимости до 1 км и менее - туман. В сухую погоду видимость может ухудшаться дымом, пылью или мглою.
  • Явления - указаны атмосферные явления, наблюдавшиеся в срок или в последний час перед сроком; фигурными скобками обозначены явления, наблюдавшиеся между сроками (за 1-3 часа до срока); квадратными скобками обозначены град или гололедные отложения с указанием их диаметра в мм.
  • Облачность - указаны через наклонную черту общая и нижняя облачность в баллах и высота нижней границы облаков в метрах; квадратными скобками обозначены формы облаков: Ci - перистые, Cs - перисто-слоистые, Cc - перисто-кучевые, Ac - высококучевые, As - высокослоистые, Sc - слоисто-кучевые, Ns - слоисто-дождевые, Cu - кучевые, Cb - кучево-дождевые. Подробнее классификацию облаков см. в Атласе облаков (PDF).
  • T - Температура воздуха - температура, измеренная на высоте 2 м над землей.
  • Td - Температура точки росы - температура, при понижении до которой содержащийся в воздухе водяной пар достигнет насыщения.
  • f - Относительная влажность воздуха - влажноcть воздуха, измеренная на высоте 2 м над землей.
  • Te - Эффективная температура - температура, которую ощущает одетый по сезону человек в тени. Характеристика душности погоды. При расчете учитывается влияние влажности воздуха и скорости ветра на теплоощущения человека.
  • Tes - Эффективная температура на солнце - температура, которую ощущает человек, с поправкой на солнечный нагрев. Характеристика знойности погоды. Зависит от высоты солнца над горизонтом, облачности и скорости ветра. Ночью, в пасмурную погоду, а также при ветре 12 м/с и более поправка равна нулю.
  • P - Атмосферное давление - приведенное к уровню моря атмосферное давление.
  • Po - Атмосферное давление - измеренное на уровне метеостанции атмосферное давление.
  • Tmin - Минимальная температура - минимум температуры воздуха на высоте 2 м над землей.
  • Tmax - Максимальная температура - максимум температуры воздуха на высоте 2 м над землей.
  • R - Количество осадков - Количество выпавших осадков за период времени, мм. При наведении курсора мыши на число - период времени, за который выпало указанное количество осадков.
  • R24 - Количество осадков - Количество выпавших осадков за 24 часа, мм.
  • S - Снежный покров - Высота снежного покрова, см. При наведении курсора мыши на число - состояние снежного покрова и степень покрытия местности в баллах.